Wind_Speed
5 7 9 9 8 5 1 2 3 1 4 6 3 2 3 6 8 13 17 21 24 28 31 35 39 42 45 47 49 51 51 52 51 51 51 50 49 49 52 50 46 47 49
4 5 5 4 4 3 1 1 2 4 4 4 5 5 7 10 14 18 22 26 29 33 37 41 45 48 49 51 51 51 52 53 52 51 50 50 51 53 52 50 50 51 53
8 6 4 4 5 5 3 2 5 7 5 9 9 9 14 17 22 26 30 33 36 40 44 46 48 49 51 53 54 53 53 55 53 52 53 54 54 55 52 51 52 53 58
5 5 4 3 7 8 5 6 8 11 9 12 14 15 19 24 30 33 35 37 41 45 47 48 50 51 53 53 54 53 56 54 53 55 57 58 58 58 58 58 60 63 65
8 7 7 6 8 9 5 6 10 13 12 14 18 18 24 30 35 38 39 43 46 49 51 53 54 55 53 55 55 56 56 55 57 59 58 58 61 62 60 61 65 68 73
9 7 5 7 9 12 7 11 11 13 12 17 21 24 30 36 39 41 44 47 50 51 53 54 54 56 56 55 56 57 57 60 62 62 62 63 65 65 66 68 69 71 72
10 9 6 8 8 9 8 7 11 17 19 22 25 29 36 41 43 45 48 49 50 51 51 51 55 56 57 59 58 59 62 64 64 64 66 67 68 70 71 74 79 73 71
10 7 8 7 8 9 9 11 14 20 24 28 31 35 40 45 47 49 49 51 51 50 48 51 59 58 58 58 60 63 65 65 66 69 73 75 75 79 80 79 73 68 63
7 6 6 8 11 13 11 16 20 24 28 33 37 42 45 45 48 50 51 51 51 50 50 55 57 58 59 61 63 65 66 69 73 76 79 79 81 82 80 78 72 69 68
7 7 8 12 16 15 18 22 25 29 34 38 42 45 44 47 50 51 50 52 52 52 53 55 56 58 60 62 64 67 70 74 76 77 79 83 83 82 78 69 70 74 76
11 12 13 17 17 19 23 27 32 36 40 42 42 44 43 46 49 51 53 55 53 53 53 55 57 59 62 64 68 71 75 76 80 82 84 85 81 72 66 69 77 76 71
15 17 19 19 21 25 28 31 33 36 39 43 41 40 44 45 47 51 56 53 52 53 55 57 58 61 65 69 73 76 78 79 84 86 85 76 70 70 72 77 74 69 71
18 21 21 22 28 32 33 33 34 33 38 38 40 42 41 45 49 54 51 49 51 53 54 56 59 64 69 73 76 77 81 85 86 84 78 73 72 76 73 67 66 68 66
19 22 24 28 32 33 32 34 35 38 40 37 44 41 47 49 50 51 49 50 51 52 56 59 64 69 70 74 79 81 82 83 84 79 74 75 72 66 64 64 63 61 60
22 25 28 28 30 32 34 36 36 39 45 48 48 48 51 51 52 51 49 50 53 56 60 61 68 75 81 82 83 83 83 85 77 73 73 66 59 57 59 60 57 57 56
28 30 29 31 34 36 39 43 42 50 49 48 49 52 53 52 50 49 50 53 58 61 66 69 74 76 78 85 85 84 84 77 75 70 61 57 57 58 58 57 55 55 51
31 31 33 36 39 43 46 49 50 49 49 50 53 53 54 53 50 50 53 57 61 62 69 67 71 75 80 83 83 82 73 74 62 60 57 55 57 58 57 55 54 51 47
32 34 37 40 44 47 50 50 49 49 51 53 54 55 53 50 51 54 57 60 64 66 70 69 70 72 78 80 80 73 67 59 58 57 55 57 58 57 55 53 51 47 44
34 37 41 45 48 50 51 51 49 51 53 54 54 52 49 50 55 57 62 64 63 65 69 69 70 74 77 76 68 64 60 58 57 55 57 58 59 56 53 51 48 44 41
38 42 45 48 49 50 49 49 50 52 53 53 51 48 51 53 59 62 64 64 63 65 68 69 72 73 74 67 61 59 59 58 56 56 58 59 59 55 50 48 44 41 38
42 46 48 48 48 49 49 50 52 54 55 53 50 51 53 58 61 63 63 63 64 66 67 69 71 74 70 61 61 60 59 59 55 57 59 60 58 53 47 45 41 38 35
43 44 46 47 48 48 49 52 54 56 53 50 51 54 58 60 61 61 61 63 65 66 69 73 74 72 66 62 61 59 59 58 57 58 60 60 56 51 45 42 39 36 34
44 46 47 47 48 50 51 54 53 51 49 51 55 58 60 61 60 61 63 65 68 72 75 76 73 69 64 60 59 59 59 58 59 60 61 60 53 48 45 39 37 34 33
47 48 48 49 51 53 54 54 53 52 54 56 59 61 61 62 63 65 68 72 75 76 77 75 71 66 62 60 62 60 59 60 60 62 63 58 49 45 43 38 36 33 32
49 50 50 51 53 54 54 54 55 56 58 60 62 62 63 64 66 70 74 76 77 78 76 73 68 64 61 60 63 62 61 62 65 65 63 53 45 43 41 37 33 32 31
52 52 53 54 56 56 55 55 56 59 62 64 64 64 65 68 72 75 76 78 78 76 74 69 65 63 63 62 63 64 65 68 69 66 58 48 43 41 39 36 32 31 30
Wind_Direction
175 159 146 146 135 131 95 110 155 36 325 302 255 226 288 297 292 287 283 285 290 297 299 300 301 302 306 309 310 311 311 310 310 308 307 306 304 303 302 302 298 295 294
156 137 120 103 95 109 36 236 220 309 311 273 229 249 268 279 280 288 292 299 304 304 304 304 306 310 312 312 311 309 310 310 308 308 306 305 303 303 303 300 297 295 296
170 160 109 32 351 336 267 269 296 315 297 305 282 286 295 302 301 303 306 308 307 307 307 309 310 311 311 310 309 309 309 310 309 307 306 304 302 301 299 298 296 295 296
217 214 211 265 311 310 297 301 311 308 299 296 292 291 295 297 301 303 305 306 307 306 306 306 306 307 308 308 308 311 310 310 309 308 307 305 304 303 301 298 296 295 294
193 224 225 254 280 289 289 277 288 292 291 292 292 298 299 301 301 302 305 305 305 306 309 310 311 311 309 310 312 309 310 308 308 307 305 304 304 303 300 297 297 297 297
238 215 221 248 264 270 255 279 286 284 286 291 296 301 300 297 298 303 303 306 308 310 311 310 312 310 311 313 311 309 308 309 308 307 306 305 303 299 297 297 299 300 299
240 237 232 246 256 264 270 252 281 291 297 300 299 299 296 299 302 303 305 307 310 310 310 313 311 312 310 310 309 308 309 308 306 305 302 300 297 297 298 298 303 302 302
245 236 223 231 246 268 281 288 295 294 301 300 299 298 299 301 303 303 303 307 310 311 315 308 307 308 308 308 307 308 307 305 303 300 300 300 300 299 298 302 306 306 306
209 207 245 264 279 287 297 296 299 299 297 299 300 301 301 301 299 301 305 310 312 311 308 304 305 307 308 308 307 306 304 303 303 304 303 301 302 304 306 308 311 308 300
236 251 261 273 279 294 296 297 298 296 297 300 299 299 297 297 301 304 307 310 310 307 305 305 305 306 305 304 304 303 302 302 302 301 302 303 305 306 308 308 304 301 306
243 255 260 269 283 291 295 295 296 299 300 298 300 296 292 299 302 305 307 308 307 307 306 304 304 305 305 304 304 303 302 301 302 304 306 308 310 312 308 304 309 313 305
261 266 269 275 282 287 289 291 297 299 298 297 294 292 295 297 300 300 304 306 306 305 304 304 307 306 304 304 303 301 302 305 307 310 312 315 314 308 303 311 312 303 298
264 268 272 271 274 277 281 289 294 292 295 294 293 290 290 291 289 300 303 302 303 303 305 307 306 303 304 304 304 304 305 307 311 313 314 312 305 307 314 309 303 300 305
264 265 268 271 274 280 292 295 288 290 293 290 293 292 293 295 299 300 301 302 304 306 307 308 303 302 305 310 311 311 310 312 313 315 311 307 315 313 308 303 306 309 309
282 282 282 285 288 289 294 288 282 286 295 303 303 297 302 299 299 302 304 306 306 305 310 308 308 304 301 309 314 313 314 313 314 306 313 317 316 315 313 310 311 311 310
283 284 288 293 297 300 300 299 296 302 305 306 304 301 300 303 304 303 305 304 304 301 305 307 308 305 307 312 312 313 311 312 307 316 314 316 320 318 314 312 311 311 311
287 294 297 299 302 302 303 305 305 305 304 303 302 302 302 302 302 302 301 303 307 301 300 306 302 303 305 309 310 310 309 309 314 315 316 319 320 317 313 312 311 312 310
291 293 296 299 300 301 303 304 301 300 301 300 300 301 300 300 299 299 303 305 305 307 306 303 304 304 304 307 307 309 310 310 315 314 316 319 320 317 312 311 311 312 310
290 295 297 299 301 302 300 299 300 300 298 299 299 298 297 297 299 303 304 306 307 300 302 304 305 305 305 305 307 307 307 316 314 313 316 319 320 318 312 310 311 310 310
295 297 298 299 298 298 297 297 297 297 298 299 298 297 295 299 303 305 306 305 301 301 301 304 305 305 306 309 303 303 308 312 312 312 315 319 321 318 312 311 311 309 310
296 297 298 299 299 299 300 300 300 301 300 299 297 298 302 303 304 304 302 299 300 301 302 304 305 307 309 305 302 302 306 310 310 312 315 319 319 316 312 310 310 308 307
297 300 302 302 301 300 299 300 301 301 300 299 300 302 303 303 303 301 299 299 301 303 303 306 310 310 307 303 301 302 306 307 309 311 313 316 317 313 310 308 308 306 304
305 305 304 303 301 301 302 303 302 299 298 299 302 304 304 303 300 298 300 302 303 304 307 310 310 307 304 302 301 303 305 306 308 309 311 314 313 307 306 305 304 302 300
307 306 305 303 303 304 304 304 302 300 300 302 303 303 303 302 302 302 302 303 305 309 310 308 306 304 303 302 301 302 303 304 305 307 309 310 307 301 301 300 299 297 296
306 306 305 304 304 305 304 303 301 301 302 303 303 304 304 303 302 302 304 307 309 309 308 307 305 303 302 301 301 302 303 303 304 305 306 305 298 293 295 294 293 291 292
307 305 305 304 305 305 303 302 301 303 304 304 305 305 304 303 303 304 306 308 308 307 307 307 305 302 303 302 301 301 301 302 302 303 303 298 291 287 288 286 286 284 286
Height
5780 5782 5782 5784 5785 5786 5788 5787 5787 5787 5787 5787 5786 5786 5785 5785 5785 5785 5785 5783 5780 5777 5774 5771 5768 5764 5758 5752 5747 5740 5734 5729 5723 5716 5710 5704 5700 5694 5689 5684 5680 5675 5672
5781 5781 5781 5782 5782 5783 5785 5784 5785 5785 5784 5784 5783 5783 5783 5783 5783 5781 5779 5775 5771 5769 5766 5763 5758 5751 5746 5740 5735 5729 5723 5717 5711 5704 5699 5693 5688 5682 5677 5672 5667 5663 5658
5782 5781 5779 5779 5779 5780 5779 5780 5780 5779 5780 5779 5779 5778 5777 5775 5775 5773 5769 5766 5764 5761 5757 5752 5746 5741 5736 5730 5724 5719 5713 5706 5700 5694 5688 5682 5677 5670 5665 5659 5655 5649 5643
5781 5781 5779 5778 5778 5777 5776 5774 5774 5774 5774 5774 5775 5773 5772 5771 5769 5766 5763 5760 5756 5753 5748 5743 5738 5733 5726 5719 5714 5707 5701 5695 5689 5684 5677 5670 5663 5658 5653 5646 5640 5634 5627
5777 5777 5777 5776 5775 5773 5772 5771 5772 5773 5772 5772 5770 5770 5767 5766 5763 5760 5756 5753 5749 5744 5738 5731 5726 5720 5715 5708 5702 5696 5689 5682 5676 5669 5662 5656 5650 5643 5637 5632 5624 5616 5607
5769 5770 5770 5771 5770 5770 5770 5772 5771 5770 5771 5770 5767 5764 5764 5762 5758 5753 5749 5744 5739 5733 5727 5721 5715 5709 5702 5696 5689 5682 5676 5670 5663 5656 5650 5643 5636 5628 5620 5614 5606 5599 5590
5766 5766 5765 5765 5765 5766 5767 5767 5768 5767 5765 5765 5762 5761 5759 5754 5749 5743 5738 5734 5729 5723 5717 5710 5703 5696 5690 5683 5676 5669 5663 5657 5650 5643 5635 5627 5618 5610 5603 5595 5587 5579 5571
5762 5762 5761 5761 5763 5763 5764 5764 5764 5762 5761 5760 5757 5754 5750 5744 5739 5734 5730 5725 5719 5712 5705 5699 5691 5685 5679 5673 5666 5658 5651 5643 5635 5627 5619 5611 5602 5592 5583 5575 5566 5559 5552
5761 5760 5759 5759 5759 5760 5759 5760 5760 5758 5755 5751 5748 5744 5739 5734 5730 5724 5719 5713 5707 5700 5693 5687 5681 5675 5668 5661 5654 5646 5639 5630 5621 5613 5604 5595 5585 5573 5564 5555 5545 5537 5535
5758 5758 5757 5757 5757 5755 5755 5755 5753 5751 5747 5743 5739 5735 5730 5724 5718 5713 5708 5702 5695 5688 5683 5677 5671 5664 5657 5649 5641 5633 5624 5617 5608 5597 5587 5577 5567 5556 5545 5535 5528 5520 5511
5756 5755 5755 5755 5753 5751 5749 5747 5745 5741 5737 5734 5730 5725 5719 5714 5708 5701 5696 5691 5685 5679 5673 5666 5659 5653 5644 5636 5628 5619 5610 5602 5592 5581 5570 5559 5548 5537 5529 5520 5509 5499 5488
5751 5751 5750 5749 5748 5746 5743 5741 5738 5733 5729 5725 5720 5715 5710 5704 5698 5692 5687 5681 5675 5668 5661 5655 5648 5640 5631 5622 5614 5605 5595 5585 5575 5563 5551 5539 5529 5521 5513 5502 5491 5481 5470
5746 5746 5745 5744 5742 5740 5738 5734 5730 5726 5721 5715 5710 5705 5700 5695 5690 5685 5678 5671 5665 5658 5651 5644 5636 5626 5618 5610 5600 5588 5578 5567 5555 5545 5535 5525 5516 5506 5495 5484 5474 5463 5454
5741 5740 5739 5737 5734 5731 5729 5725 5722 5718 5712 5706 5701 5696 5691 5685 5679 5673 5667 5661 5654 5646 5639 5632 5623 5613 5604 5593 5583 5572 5560 5550 5539 5529 5520 5511 5500 5489 5479 5468 5458 5449 5441
5732 5731 5729 5727 5725 5723 5720 5717 5712 5708 5702 5696 5690 5685 5679 5673 5667 5661 5655 5649 5642 5634 5627 5618 5608 5597 5586 5575 5564 5554 5543 5533 5524 5515 5505 5495 5485 5474 5464 5454 5445 5437 5429
5724 5722 5720 5718 5714 5711 5708 5705 5701 5696 5690 5684 5679 5673 5667 5661 5654 5648 5642 5636 5629 5621 5613 5604 5592 5579 5568 5558 5548 5539 5530 5519 5510 5500 5492 5483 5473 5462 5452 5443 5434 5426 5419
5715 5713 5709 5706 5703 5700 5696 5693 5688 5683 5678 5674 5667 5661 5654 5647 5642 5636 5629 5622 5615 5607 5599 5588 5577 5567 5555 5544 5535 5526 5516 5506 5496 5488 5480 5470 5460 5450 5441 5432 5424 5416 5409
5706 5703 5701 5698 5695 5692 5688 5683 5678 5673 5668 5662 5656 5649 5642 5636 5630 5623 5617 5609 5601 5591 5581 5572 5562 5553 5542 5531 5521 5511 5502 5494 5485 5477 5468 5459 5449 5439 5430 5422 5413 5406 5399
5699 5696 5693 5690 5686 5681 5676 5671 5667 5661 5655 5650 5644 5637 5631 5624 5617 5611 5602 5594 5585 5577 5568 5558 5549 5538 5527 5516 5506 5498 5490 5482 5473 5465 5456 5448 5438 5428 5420 5412 5405 5397 5391
5690 5687 5683 5679 5675 5670 5665 5660 5655 5649 5643 5637 5630 5624 5619 5612 5605 5595 5587 5578 5571 5563 5554 5544 5534 5524 5513 5500 5492 5484 5477 5469 5461 5453 5444 5435 5427 5417 5409 5403 5396 5390 5384
5680 5676 5672 5667 5662 5657 5652 5646 5641 5635 5629 5623 5617 5611 5604 5597 5589 5581 5573 5564 5556 5548 5539 5529 5519 5508 5497 5488 5479 5471 5463 5456 5448 5440 5431 5424 5415 5407 5400 5394 5388 5382 5377
5670 5665 5660 5655 5650 5645 5640 5634 5628 5621 5614 5609 5603 5597 5590 5582 5574 5566 5557 5549 5541 5532 5522 5513 5502 5489 5480 5473 5465 5457 5450 5442 5435 5427 5419 5412 5404 5396 5390 5385 5380 5375 5371
5656 5652 5647 5642 5636 5631 5626 5620 5613 5607 5601 5595 5589 5582 5574 5566 5558 5551 5542 5533 5523 5515 5504 5492 5484 5475 5465 5458 5450 5443 5436 5429 5422 5414 5406 5399 5392 5385 5380 5376 5371 5367 5363
5644 5639 5633 5628 5622 5616 5610 5604 5598 5593 5587 5580 5573 5566 5558 5550 5542 5534 5526 5517 5506 5495 5484 5474 5465 5457 5451 5442 5433 5429 5422 5414 5408 5401 5394 5387 5380 5374 5370 5366 5362 5359 5356
5631 5626 5620 5615 5609 5603 5597 5591 5585 5579 5572 5565 5558 5550 5542 5533 5526 5517 5507 5497 5486 5475 5466 5457 5446 5439 5435 5428 5416 5410 5405 5398 5391 5386 5380 5373 5367 5362 5359 5356 5353 5350 5348
5617 5612 5606 5601 5595 5589 5582 5577 5571 5564 5557 5549 5541 5533 5525 5516 5507 5499 5491 5478 5467 5457 5446 5438 5429 5422 5415 5410 5402 5395 5388 5381 5374 5370 5364 5359 5354 5350 5348 5345 5343 5341 5340